Year,Month,Day,Hour,Minute,Value (Times are PST for windspeed in km/hr)
2006,06,16,00,00,0.00
2006,06,16,00,01,0.00
2006,06,16,00,02,0.10
2006,06,16,00,03,0.60
2006,06,16,00,04,0.70
2006,06,16,00,05,0.50
2006,06,16,00,06,1.70
2006,06,16,00,07,1.50
2006,06,16,00,08,0.10
2006,06,16,00,09,0.30
2006,06,16,00,10,1.50
2006,06,16,00,11,0.90
2006,06,16,00,12,0.00
2006,06,16,00,13,0.00
2006,06,16,00,14,0.00
2006,06,16,00,15,0.00
2006,06,16,00,16,0.00
2006,06,16,00,17,0.00
2006,06,16,00,18,0.20
2006,06,16,00,19,0.30
2006,06,16,00,20,0.00
2006,06,16,00,21,0.00
2006,06,16,00,22,0.00
2006,06,16,00,23,0.00
2006,06,16,00,24,0.00
2006,06,16,00,25,0.00
2006,06,16,00,26,0.50
2006,06,16,00,27,1.30
2006,06,16,00,28,1.50
2006,06,16,00,29,0.30
2006,06,16,00,30,1.10
2006,06,16,00,31,0.40
2006,06,16,00,32,0.00
2006,06,16,00,33,0.00
2006,06,16,00,34,0.00
2006,06,16,00,35,1.20
2006,06,16,00,36,0.80
2006,06,16,00,37,0.00
2006,06,16,00,38,0.00
2006,06,16,00,39,0.00
2006,06,16,00,40,0.10
2006,06,16,00,41,0.10
2006,06,16,00,42,0.60
2006,06,16,00,43,0.20
2006,06,16,00,44,0.40
2006,06,16,00,45,1.20
2006,06,16,00,46,1.50
2006,06,16,00,47,0.80
2006,06,16,00,48,0.00
2006,06,16,00,49,0.00
2006,06,16,00,50,0.00
2006,06,16,00,51,0.00
2006,06,16,00,52,0.00
2006,06,16,00,53,0.00
2006,06,16,00,54,0.00
2006,06,16,00,55,0.00
2006,06,16,00,56,0.00
2006,06,16,00,57,0.00
2006,06,16,00,58,0.00
2006,06,16,00,59,0.20
2006,06,16,01,00,1.00
2006,06,16,01,01,0.00
2006,06,16,01,02,0.20
2006,06,16,01,03,0.00
2006,06,16,01,04,0.00
2006,06,16,01,05,0.00
2006,06,16,01,06,0.00
2006,06,16,01,07,0.00
2006,06,16,01,08,0.00
2006,06,16,01,09,0.00
2006,06,16,01,10,0.00
2006,06,16,01,11,0.00
2006,06,16,01,12,0.00
2006,06,16,01,13,0.00
2006,06,16,01,14,0.00
2006,06,16,01,15,0.00
2006,06,16,01,16,0.00
2006,06,16,01,17,0.00
2006,06,16,01,18,0.00
2006,06,16,01,19,0.00
2006,06,16,01,20,0.00
2006,06,16,01,21,0.00
2006,06,16,01,22,0.00
2006,06,16,01,23,0.00
2006,06,16,01,24,0.30
2006,06,16,01,25,1.90
2006,06,16,01,26,1.90
2006,06,16,01,27,2.20
2006,06,16,01,28,2.00
2006,06,16,01,29,2.10
2006,06,16,01,30,1.70
2006,06,16,01,31,1.10
2006,06,16,01,32,0.30
2006,06,16,01,33,0.00
2006,06,16,01,34,0.10
2006,06,16,01,35,1.00
2006,06,16,01,36,0.40
2006,06,16,01,37,0.80
2006,06,16,01,38,1.50
2006,06,16,01,39,0.80
2006,06,16,01,40,0.10
2006,06,16,01,41,0.00
2006,06,16,01,42,0.00
2006,06,16,01,43,0.00
2006,06,16,01,44,0.00
2006,06,16,01,45,0.00
2006,06,16,01,46,0.00
2006,06,16,01,47,0.00
2006,06,16,01,48,0.00
2006,06,16,01,49,0.10
2006,06,16,01,50,0.00
2006,06,16,01,51,0.00
2006,06,16,01,52,0.30
2006,06,16,01,53,1.90
2006,06,16,01,54,0.90
2006,06,16,01,55,0.00
2006,06,16,01,56,0.20
2006,06,16,01,57,0.50
2006,06,16,01,58,0.00
2006,06,16,01,59,0.00
2006,06,16,02,00,0.00
2006,06,16,02,01,0.00
2006,06,16,02,02,0.00
2006,06,16,02,03,0.00
2006,06,16,02,04,0.00
2006,06,16,02,05,0.00
2006,06,16,02,06,0.10
2006,06,16,02,07,0.00
2006,06,16,02,08,0.00
2006,06,16,02,09,0.00
2006,06,16,02,10,0.00
2006,06,16,02,11,0.00
2006,06,16,02,12,0.00
2006,06,16,02,13,0.00
2006,06,16,02,14,0.00
2006,06,16,02,15,0.00
2006,06,16,02,16,0.00
2006,06,16,02,17,0.00
2006,06,16,02,18,0.00
2006,06,16,02,19,0.00
2006,06,16,02,20,0.00
2006,06,16,02,21,0.00
2006,06,16,02,22,0.00
2006,06,16,02,23,0.00
2006,06,16,02,24,0.00
2006,06,16,02,25,0.00
2006,06,16,02,26,0.00
2006,06,16,02,27,0.00
2006,06,16,02,28,0.00
2006,06,16,02,29,0.90
2006,06,16,02,30,1.50
2006,06,16,02,31,1.50
2006,06,16,02,32,1.30
2006,06,16,02,33,1.30
2006,06,16,02,34,1.20
2006,06,16,02,35,0.20
2006,06,16,02,36,0.00
2006,06,16,02,37,0.00
2006,06,16,02,38,0.00
2006,06,16,02,39,0.00
2006,06,16,02,40,0.00
2006,06,16,02,41,0.00
2006,06,16,02,42,0.00
2006,06,16,02,43,0.00
2006,06,16,02,44,0.10
2006,06,16,02,45,0.00
2006,06,16,02,46,0.00
2006,06,16,02,47,0.00
2006,06,16,02,48,0.10
2006,06,16,02,49,1.10
2006,06,16,02,50,0.20
2006,06,16,02,51,0.10
2006,06,16,02,52,0.00
2006,06,16,02,53,0.10
2006,06,16,02,54,0.60
2006,06,16,02,55,0.50
2006,06,16,02,56,0.70
2006,06,16,02,57,0.80
2006,06,16,02,58,1.00
2006,06,16,02,59,0.60
2006,06,16,03,00,0.50
2006,06,16,03,01,0.90
2006,06,16,03,02,1.10
2006,06,16,03,03,0.50
2006,06,16,03,04,0.10
2006,06,16,03,05,0.00
2006,06,16,03,06,0.00
2006,06,16,03,07,0.00
2006,06,16,03,08,0.20
2006,06,16,03,09,1.60
2006,06,16,03,10,1.70
2006,06,16,03,11,1.20
2006,06,16,03,12,0.60
2006,06,16,03,13,0.00
2006,06,16,03,14,0.10
2006,06,16,03,15,0.20
2006,06,16,03,16,0.00
2006,06,16,03,17,0.10
2006,06,16,03,18,0.40
2006,06,16,03,19,0.00
2006,06,16,03,20,0.00
2006,06,16,03,21,0.00
2006,06,16,03,22,0.20
2006,06,16,03,23,0.60
2006,06,16,03,24,0.10
2006,06,16,03,25,0.10
2006,06,16,03,26,0.10
2006,06,16,03,27,0.00
2006,06,16,03,28,0.00
2006,06,16,03,29,0.00
2006,06,16,03,30,0.60
2006,06,16,03,31,0.60
2006,06,16,03,32,0.50
2006,06,16,03,33,0.00
2006,06,16,03,34,0.10
2006,06,16,03,35,0.10
2006,06,16,03,36,0.80
2006,06,16,03,37,1.40
2006,06,16,03,38,0.20
2006,06,16,03,39,0.00
2006,06,16,03,40,0.00
2006,06,16,03,41,1.30
2006,06,16,03,42,1.20
2006,06,16,03,43,0.40
2006,06,16,03,44,0.00
2006,06,16,03,45,0.10
2006,06,16,03,46,0.00
2006,06,16,03,47,0.00
2006,06,16,03,48,0.00
2006,06,16,03,49,0.00
2006,06,16,03,50,0.00
2006,06,16,03,51,0.00
2006,06,16,03,52,0.00
2006,06,16,03,53,0.00
2006,06,16,03,54,0.00
2006,06,16,03,55,0.00
2006,06,16,03,56,0.00
2006,06,16,03,57,0.00
2006,06,16,03,58,0.00
2006,06,16,03,59,0.00
2006,06,16,04,00,0.00
2006,06,16,04,01,0.00
2006,06,16,04,02,0.00
2006,06,16,04,03,0.10
2006,06,16,04,04,0.10
2006,06,16,04,05,0.00
2006,06,16,04,06,1.50
2006,06,16,04,07,0.80
2006,06,16,04,08,0.00
2006,06,16,04,09,0.40
2006,06,16,04,10,0.00
2006,06,16,04,11,0.00
2006,06,16,04,12,0.00
2006,06,16,04,13,0.20
2006,06,16,04,14,0.00
2006,06,16,04,15,0.00
2006,06,16,04,16,0.00
2006,06,16,04,17,0.00
2006,06,16,04,18,0.00
2006,06,16,04,19,0.00
2006,06,16,04,20,1.10
2006,06,16,04,21,1.70
2006,06,16,04,22,2.30
2006,06,16,04,23,3.50
2006,06,16,04,24,2.80
2006,06,16,04,25,2.40
2006,06,16,04,26,1.40
2006,06,16,04,27,1.40
2006,06,16,04,28,1.90
2006,06,16,04,29,3.00
2006,06,16,04,30,1.00
2006,06,16,04,31,0.20
2006,06,16,04,32,0.00
2006,06,16,04,33,0.00
2006,06,16,04,34,0.00
2006,06,16,04,35,0.00
2006,06,16,04,36,0.00
2006,06,16,04,37,0.00
2006,06,16,04,38,0.00
2006,06,16,04,39,0.00
2006,06,16,04,40,0.00
2006,06,16,04,41,0.00
2006,06,16,04,42,0.00
2006,06,16,04,43,0.00
2006,06,16,04,44,0.00
2006,06,16,04,45,0.30
2006,06,16,04,46,0.10
2006,06,16,04,47,0.00
2006,06,16,04,48,0.10
2006,06,16,04,49,1.10
2006,06,16,04,50,1.40
2006,06,16,04,51,1.90
2006,06,16,04,52,1.60
2006,06,16,04,53,1.50
2006,06,16,04,54,1.10
2006,06,16,04,55,0.30
2006,06,16,04,56,1.10
2006,06,16,04,57,0.80
2006,06,16,04,58,0.90
2006,06,16,04,59,0.50
2006,06,16,05,00,0.00
2006,06,16,05,01,0.00
2006,06,16,05,02,0.00
2006,06,16,05,03,0.00
2006,06,16,05,04,0.00
2006,06,16,05,05,0.00
2006,06,16,05,06,0.80
2006,06,16,05,07,2.00
2006,06,16,05,08,1.30
2006,06,16,05,09,0.00
2006,06,16,05,10,0.00
2006,06,16,05,11,0.00
2006,06,16,05,12,0.00
2006,06,16,05,13,0.00
2006,06,16,05,14,0.00
2006,06,16,05,15,0.00
2006,06,16,05,16,0.00
2006,06,16,05,17,0.00
2006,06,16,05,18,0.00
2006,06,16,05,19,0.00
2006,06,16,05,20,0.00
2006,06,16,05,21,0.10
2006,06,16,05,22,0.60
2006,06,16,05,23,0.90
2006,06,16,05,24,0.60
2006,06,16,05,25,0.00
2006,06,16,05,26,0.80
2006,06,16,05,27,1.10
2006,06,16,05,28,0.50
2006,06,16,05,29,1.30
2006,06,16,05,30,0.00
2006,06,16,05,31,0.00
2006,06,16,05,32,0.60
2006,06,16,05,33,0.90
2006,06,16,05,34,1.50
2006,06,16,05,35,0.60
2006,06,16,05,36,0.10
2006,06,16,05,37,0.00
2006,06,16,05,38,0.00
2006,06,16,05,39,0.60
2006,06,16,05,40,1.70
2006,06,16,05,41,0.90
2006,06,16,05,42,0.90
2006,06,16,05,43,1.10
2006,06,16,05,44,1.60
2006,06,16,05,45,2.20
2006,06,16,05,46,3.20
2006,06,16,05,47,5.00
2006,06,16,05,48,3.70
2006,06,16,05,49,6.50
2006,06,16,05,50,6.30
2006,06,16,05,51,5.60
2006,06,16,05,52,5.60
2006,06,16,05,53,4.60
2006,06,16,05,54,5.50
2006,06,16,05,55,6.20
2006,06,16,05,56,6.20
2006,06,16,05,57,2.50
2006,06,16,05,58,0.30
2006,06,16,05,59,2.80
2006,06,16,06,00,6.10
2006,06,16,06,01,2.10
2006,06,16,06,02,5.30
2006,06,16,06,03,4.60
2006,06,16,06,04,2.00
2006,06,16,06,05,1.50
2006,06,16,06,06,1.40
2006,06,16,06,07,2.90
2006,06,16,06,08,3.50
2006,06,16,06,09,1.50
2006,06,16,06,10,1.50
2006,06,16,06,11,2.20
2006,06,16,06,12,2.10
2006,06,16,06,13,2.70
2006,06,16,06,14,3.10
2006,06,16,06,15,3.20
2006,06,16,06,16,3.60
2006,06,16,06,17,3.20
2006,06,16,06,18,4.20
2006,06,16,06,19,3.30
2006,06,16,06,20,5.00
2006,06,16,06,21,3.70
2006,06,16,06,22,3.10
2006,06,16,06,23,3.40
2006,06,16,06,24,4.00
2006,06,16,06,25,3.00
2006,06,16,06,26,4.30
2006,06,16,06,27,3.20
2006,06,16,06,28,1.60
2006,06,16,06,29,3.90
2006,06,16,06,30,5.80
2006,06,16,06,31,5.60
2006,06,16,06,32,5.60
2006,06,16,06,33,3.10
2006,06,16,06,34,4.30
2006,06,16,06,35,6.20
2006,06,16,06,36,6.00
2006,06,16,06,37,6.40
2006,06,16,06,38,5.10
2006,06,16,06,39,6.90
2006,06,16,06,40,4.80
2006,06,16,06,41,5.90
2006,06,16,06,42,3.30
2006,06,16,06,43,2.40
2006,06,16,06,44,1.70
2006,06,16,06,45,1.10
2006,06,16,06,46,1.20
2006,06,16,06,47,3.30
2006,06,16,06,48,4.50
2006,06,16,06,49,6.20
2006,06,16,06,50,4.20
2006,06,16,06,51,5.30
2006,06,16,06,52,1.70
2006,06,16,06,53,2.10
2006,06,16,06,54,1.40
2006,06,16,06,55,5.60
2006,06,16,06,56,4.70
2006,06,16,06,57,6.80
2006,06,16,06,58,1.80
2006,06,16,06,59,1.70
2006,06,16,07,00,1.00
2006,06,16,07,01,1.00
2006,06,16,07,02,0.20
2006,06,16,07,03,0.00
2006,06,16,07,04,2.50
2006,06,16,07,05,1.80
2006,06,16,07,06,2.80
2006,06,16,07,07,3.50
2006,06,16,07,08,3.10
2006,06,16,07,09,1.00
2006,06,16,07,10,1.00
2006,06,16,07,11,1.90
2006,06,16,07,12,2.90
2006,06,16,07,13,3.50
2006,06,16,07,14,3.50
2006,06,16,07,15,2.50
2006,06,16,07,16,3.00
2006,06,16,07,17,2.90
2006,06,16,07,18,2.30
2006,06,16,07,19,0.30
2006,06,16,07,20,0.00
2006,06,16,07,21,0.20
2006,06,16,07,22,1.80
2006,06,16,07,23,0.80
2006,06,16,07,24,0.60
2006,06,16,07,25,1.50
2006,06,16,07,26,1.50
2006,06,16,07,27,4.70
2006,06,16,07,28,3.00
2006,06,16,07,29,1.70
2006,06,16,07,30,1.90
2006,06,16,07,31,3.90
2006,06,16,07,32,4.70
2006,06,16,07,33,5.10
2006,06,16,07,34,4.30
2006,06,16,07,35,3.90
2006,06,16,07,36,4.80
2006,06,16,07,37,1.90
2006,06,16,07,38,2.60
2006,06,16,07,39,3.70
2006,06,16,07,40,7.20
2006,06,16,07,41,5.50
2006,06,16,07,42,4.80
2006,06,16,07,43,4.40
2006,06,16,07,44,4.70
2006,06,16,07,45,4.60
2006,06,16,07,46,5.30
2006,06,16,07,47,3.50
2006,06,16,07,48,5.70
2006,06,16,07,49,4.50
2006,06,16,07,50,3.90
2006,06,16,07,51,5.80
2006,06,16,07,52,4.30
2006,06,16,07,53,6.10
2006,06,16,07,54,3.90
2006,06,16,07,55,3.50
2006,06,16,07,56,3.10
2006,06,16,07,57,2.40
2006,06,16,07,58,2.70
2006,06,16,07,59,1.50
2006,06,16,08,00,0.80
2006,06,16,08,01,3.10
2006,06,16,08,02,3.50
2006,06,16,08,03,3.50
2006,06,16,08,04,2.20
2006,06,16,08,05,1.50
2006,06,16,08,06,0.50
2006,06,16,08,07,1.60
2006,06,16,08,08,1.60
2006,06,16,08,09,0.70
2006,06,16,08,10,0.60
2006,06,16,08,11,2.80
2006,06,16,08,12,2.10
2006,06,16,08,13,0.10
2006,06,16,08,14,1.50
2006,06,16,08,15,2.60
2006,06,16,08,16,1.00
2006,06,16,08,17,5.30
2006,06,16,08,18,5.90
2006,06,16,08,19,6.70
2006,06,16,08,20,4.70
2006,06,16,08,21,6.40
2006,06,16,08,22,5.40
2006,06,16,08,23,6.20
2006,06,16,08,24,7.10
2006,06,16,08,25,4.30
2006,06,16,08,26,7.70
2006,06,16,08,27,7.20
2006,06,16,08,28,7.30
2006,06,16,08,29,7.40
2006,06,16,08,30,6.30
2006,06,16,08,31,5.20
2006,06,16,08,32,4.90
2006,06,16,08,33,4.70
2006,06,16,08,34,5.10
2006,06,16,08,35,6.00
2006,06,16,08,36,3.60
2006,06,16,08,37,3.60
2006,06,16,08,38,4.10
2006,06,16,08,39,4.10
2006,06,16,08,40,3.30
2006,06,16,08,41,4.80
2006,06,16,08,42,6.10
2006,06,16,08,43,5.00
2006,06,16,08,44,1.00
2006,06,16,08,45,5.90
2006,06,16,08,46,3.90
2006,06,16,08,47,3.50
2006,06,16,08,48,2.80
2006,06,16,08,49,4.70
2006,06,16,08,50,3.50
2006,06,16,08,51,4.00
2006,06,16,08,52,3.30
2006,06,16,08,53,3.70
2006,06,16,08,54,5.10
2006,06,16,08,55,9.40
2006,06,16,08,56,6.90
2006,06,16,08,57,5.10
2006,06,16,08,58,4.80
2006,06,16,08,59,6.20
2006,06,16,09,00,7.70
2006,06,16,09,01,5.90
2006,06,16,09,02,3.60
2006,06,16,09,03,4.20
2006,06,16,09,04,5.00
2006,06,16,09,05,4.70
2006,06,16,09,06,3.90
2006,06,16,09,07,2.90
2006,06,16,09,08,4.60
2006,06,16,09,09,3.40
2006,06,16,09,10,4.20
2006,06,16,09,11,4.60
2006,06,16,09,12,3.00
2006,06,16,09,13,3.00
2006,06,16,09,14,6.40
2006,06,16,09,15,5.80
2006,06,16,09,16,8.80
2006,06,16,09,17,2.40
2006,06,16,09,18,2.90
2006,06,16,09,19,4.40
2006,06,16,09,20,2.30
2006,06,16,09,21,5.60
2006,06,16,09,22,2.70
2006,06,16,09,23,3.30
2006,06,16,09,24,6.80
2006,06,16,09,25,5.40
2006,06,16,09,26,8.30
2006,06,16,09,27,4.90
2006,06,16,09,28,1.80
2006,06,16,09,29,1.60
2006,06,16,09,30,3.50
2006,06,16,09,31,5.40
2006,06,16,09,32,3.60
2006,06,16,09,33,5.10
2006,06,16,09,34,3.90
2006,06,16,09,35,1.30
2006,06,16,09,36,1.90
2006,06,16,09,37,2.30
2006,06,16,09,38,5.30
2006,06,16,09,39,1.50
2006,06,16,09,40,1.70
2006,06,16,09,41,0.70
2006,06,16,09,42,1.30
2006,06,16,09,43,2.40
2006,06,16,09,44,1.90
2006,06,16,09,45,0.70
2006,06,16,09,46,6.40
2006,06,16,09,47,8.10
2006,06,16,09,48,9.40
2006,06,16,09,49,9.40
2006,06,16,09,50,9.30
2006,06,16,09,51,7.30
2006,06,16,09,52,4.20
2006,06,16,09,53,12.40
2006,06,16,09,54,7.70
2006,06,16,09,55,8.20
2006,06,16,09,56,8.00
2006,06,16,09,57,6.80
2006,06,16,09,58,7.20
2006,06,16,09,59,4.70
2006,06,16,10,00,5.90
2006,06,16,10,01,2.00
2006,06,16,10,02,3.50
2006,06,16,10,03,4.70
2006,06,16,10,04,5.80
2006,06,16,10,05,6.40
2006,06,16,10,06,4.10
2006,06,16,10,07,3.90
2006,06,16,10,08,7.50
2006,06,16,10,09,7.60
2006,06,16,10,10,4.50
2006,06,16,10,11,3.70
2006,06,16,10,12,4.00
2006,06,16,10,13,3.40
2006,06,16,10,14,1.50
2006,06,16,10,15,5.00
2006,06,16,10,16,5.60
2006,06,16,10,17,4.50
2006,06,16,10,18,7.30
2006,06,16,10,19,2.90
2006,06,16,10,20,4.60
2006,06,16,10,21,3.50
2006,06,16,10,22,2.40
2006,06,16,10,23,3.90
2006,06,16,10,24,3.80
2006,06,16,10,25,1.90
2006,06,16,10,26,1.60
2006,06,16,10,27,2.80
2006,06,16,10,28,1.80
2006,06,16,10,29,1.60
2006,06,16,10,30,4.70
2006,06,16,10,31,6.30
2006,06,16,10,32,5.20
2006,06,16,10,33,4.20
2006,06,16,10,34,3.80
2006,06,16,10,35,3.30
2006,06,16,10,36,1.90
2006,06,16,10,37,0.90
2006,06,16,10,38,2.40
2006,06,16,10,39,5.30
2006,06,16,10,40,4.90
2006,06,16,10,41,4.90
2006,06,16,10,42,4.30
2006,06,16,10,43,4.50
2006,06,16,10,44,4.70
2006,06,16,10,45,7.30
2006,06,16,10,46,5.50
2006,06,16,10,47,3.50
2006,06,16,10,48,3.20
2006,06,16,10,49,2.70
2006,06,16,10,50,0.30
2006,06,16,10,51,1.60
2006,06,16,10,52,2.60
2006,06,16,10,53,3.40
2006,06,16,10,54,4.40
2006,06,16,10,55,6.50
2006,06,16,10,56,7.00
2006,06,16,10,57,6.80
2006,06,16,10,58,6.80
2006,06,16,10,59,6.10
2006,06,16,11,00,5.50
2006,06,16,11,01,4.10
2006,06,16,11,02,5.40
2006,06,16,11,03,3.90
2006,06,16,11,04,4.40
2006,06,16,11,05,4.70
2006,06,16,11,06,9.10
2006,06,16,11,07,5.60
2006,06,16,11,08,2.20
2006,06,16,11,09,2.80
2006,06,16,11,10,5.10
2006,06,16,11,11,8.30
2006,06,16,11,12,3.40
2006,06,16,11,13,5.10
2006,06,16,11,14,8.80
2006,06,16,11,15,13.10
2006,06,16,11,16,12.30
2006,06,16,11,17,10.60
2006,06,16,11,18,11.30
2006,06,16,11,19,9.30
2006,06,16,11,20,6.60
2006,06,16,11,21,4.30
2006,06,16,11,22,9.50
2006,06,16,11,23,3.70
2006,06,16,11,24,3.20
2006,06,16,11,25,3.90
2006,06,16,11,26,6.90
2006,06,16,11,27,6.00
2006,06,16,11,28,3.30
2006,06,16,11,29,3.10
2006,06,16,11,30,3.30
2006,06,16,11,31,6.40
2006,06,16,11,32,5.30
2006,06,16,11,33,4.20
2006,06,16,11,34,5.70
2006,06,16,11,35,5.30
2006,06,16,11,36,3.50
2006,06,16,11,37,5.10
2006,06,16,11,38,4.80
2006,06,16,11,39,6.80
2006,06,16,11,40,6.80
2006,06,16,11,41,7.20
2006,06,16,11,42,5.50
2006,06,16,11,43,5.40
2006,06,16,11,44,5.00
2006,06,16,11,45,3.80
2006,06,16,11,46,4.70
2006,06,16,11,47,6.00
2006,06,16,11,48,7.40
2006,06,16,11,49,4.30
2006,06,16,11,50,2.70
2006,06,16,11,51,6.30
2006,06,16,11,52,6.40
2006,06,16,11,53,4.40
2006,06,16,11,54,1.90
2006,06,16,11,55,4.70
2006,06,16,11,56,8.30
2006,06,16,11,57,4.30
2006,06,16,11,58,2.10
2006,06,16,11,59,2.20
2006,06,16,12,00,3.50
2006,06,16,12,01,2.50
2006,06,16,12,02,6.00
2006,06,16,12,03,2.20
2006,06,16,12,04,2.10
2006,06,16,12,05,2.80
2006,06,16,12,06,2.80
2006,06,16,12,07,4.50
2006,06,16,12,08,6.40
2006,06,16,12,09,6.40
2006,06,16,12,10,3.60
2006,06,16,12,11,6.00
2006,06,16,12,12,4.30
2006,06,16,12,13,2.50
2006,06,16,12,14,4.80
2006,06,16,12,15,1.10
2006,06,16,12,16,1.70
2006,06,16,12,17,4.00
2006,06,16,12,18,2.20
2006,06,16,12,19,0.40
2006,06,16,12,20,0.40
2006,06,16,12,21,0.20
2006,06,16,12,22,2.50
2006,06,16,12,23,6.90
2006,06,16,12,24,8.80
2006,06,16,12,25,7.50
2006,06,16,12,26,5.70
2006,06,16,12,27,7.00
2006,06,16,12,28,1.70
2006,06,16,12,29,0.90
2006,06,16,12,30,3.60
2006,06,16,12,31,5.60
2006,06,16,12,32,10.50
2006,06,16,12,33,7.10
2006,06,16,12,34,5.30
2006,06,16,12,35,4.80
2006,06,16,12,36,4.70
2006,06,16,12,37,3.50
2006,06,16,12,38,7.70
2006,06,16,12,39,3.50
2006,06,16,12,40,4.40
2006,06,16,12,41,6.30
2006,06,16,12,42,3.30
2006,06,16,12,43,6.40
2006,06,16,12,44,6.40
2006,06,16,12,45,5.60
2006,06,16,12,46,3.50
2006,06,16,12,47,10.00
2006,06,16,12,48,12.10
2006,06,16,12,49,9.90
2006,06,16,12,50,7.30
2006,06,16,12,51,4.60
2006,06,16,12,52,6.40
2006,06,16,12,53,6.40
2006,06,16,12,54,6.30
2006,06,16,12,55,4.70
2006,06,16,12,56,7.90
2006,06,16,12,57,6.10
2006,06,16,12,58,8.30
2006,06,16,12,59,7.00
2006,06,16,13,00,9.10
2006,06,16,13,01,11.60
2006,06,16,13,02,8.50
2006,06,16,13,03,4.50
2006,06,16,13,04,6.60
2006,06,16,13,05,2.80
2006,06,16,13,06,3.30
2006,06,16,13,07,2.00
2006,06,16,13,08,4.50
2006,06,16,13,09,3.60
2006,06,16,13,10,2.70
2006,06,16,13,11,1.30
2006,06,16,13,12,2.90
2006,06,16,13,13,3.20
2006,06,16,13,14,0.80
2006,06,16,13,15,3.60
2006,06,16,13,16,3.90
2006,06,16,13,17,3.60
2006,06,16,13,18,3.70
2006,06,16,13,19,1.90
2006,06,16,13,20,5.90
2006,06,16,13,21,6.30
2006,06,16,13,22,5.00
2006,06,16,13,23,2.50
2006,06,16,13,24,5.40
2006,06,16,13,25,3.40
2006,06,16,13,26,5.30
2006,06,16,13,27,2.90
2006,06,16,13,28,3.80
2006,06,16,13,29,4.70
2006,06,16,13,30,6.40
2006,06,16,13,31,8.30
2006,06,16,13,32,5.50
2006,06,16,13,33,9.30
2006,06,16,13,34,10.00
2006,06,16,13,35,8.90
2006,06,16,13,36,9.30
2006,06,16,13,37,6.50
2006,06,16,13,38,6.50
2006,06,16,13,39,10.80
2006,06,16,13,40,5.20
2006,06,16,13,41,4.30
2006,06,16,13,42,5.60
2006,06,16,13,43,4.30
2006,06,16,13,44,3.10
2006,06,16,13,45,5.80
2006,06,16,13,46,8.90
2006,06,16,13,47,9.70
2006,06,16,13,48,6.10
2006,06,16,13,49,11.90
2006,06,16,13,50,12.20
2006,06,16,13,51,6.20
2006,06,16,13,52,11.80
2006,06,16,13,53,8.20
2006,06,16,13,54,4.90
2006,06,16,13,55,12.50
2006,06,16,13,56,4.10
2006,06,16,13,57,7.50
2006,06,16,13,58,6.50
2006,06,16,13,59,9.30
2006,06,16,14,00,7.70
2006,06,16,14,01,4.20
2006,06,16,14,02,4.60
2006,06,16,14,03,4.70
2006,06,16,14,04,4.10
2006,06,16,14,05,6.40
2006,06,16,14,06,6.60
2006,06,16,14,07,4.40
2006,06,16,14,08,6.40
2006,06,16,14,09,6.30
2006,06,16,14,10,9.60
2006,06,16,14,11,6.70
2006,06,16,14,12,4.30
2006,06,16,14,13,2.10
2006,06,16,14,14,7.50
2006,06,16,14,15,14.40
2006,06,16,14,16,7.70
2006,06,16,14,17,7.50
2006,06,16,14,18,6.40
2006,06,16,14,19,4.30
2006,06,16,14,20,5.20
2006,06,16,14,21,6.50
2006,06,16,14,22,5.00
2006,06,16,14,23,6.70
2006,06,16,14,24,7.50
2006,06,16,14,25,10.60
2006,06,16,14,26,6.00
2006,06,16,14,27,10.60
2006,06,16,14,28,4.00
2006,06,16,14,29,4.90
2006,06,16,14,30,5.10
2006,06,16,14,31,8.30
2006,06,16,14,32,7.50
2006,06,16,14,33,7.50
2006,06,16,14,34,10.20
2006,06,16,14,35,4.70
2006,06,16,14,36,1.90
2006,06,16,14,37,7.90
2006,06,16,14,38,3.70
2006,06,16,14,39,3.30
2006,06,16,14,40,7.60
2006,06,16,14,41,7.50
2006,06,16,14,42,17.50
2006,06,16,14,43,8.80
2006,06,16,14,44,15.60
2006,06,16,14,45,17.70
2006,06,16,14,46,15.80
2006,06,16,14,47,13.80
2006,06,16,14,48,8.30
2006,06,16,14,49,10.10
2006,06,16,14,50,8.60
2006,06,16,14,51,13.80
2006,06,16,14,52,4.00
2006,06,16,14,53,10.10
2006,06,16,14,54,8.80
2006,06,16,14,55,6.30
2006,06,16,14,56,7.80
2006,06,16,14,57,15.50
2006,06,16,14,58,9.70
2006,06,16,14,59,7.40
2006,06,16,15,00,9.60
2006,06,16,15,01,13.20
2006,06,16,15,02,15.80
2006,06,16,15,03,17.20
2006,06,16,15,04,14.80
2006,06,16,15,05,7.40
2006,06,16,15,06,5.10
2006,06,16,15,07,5.10
2006,06,16,15,08,9.80
2006,06,16,15,09,12.80
2006,06,16,15,10,27.40
2006,06,16,15,11,29.00
2006,06,16,15,12,23.00
2006,06,16,15,13,17.50
2006,06,16,15,14,18.40
2006,06,16,15,15,9.70
2006,06,16,15,16,12.10
2006,06,16,15,17,6.60
2006,06,16,15,18,3.10
2006,06,16,15,19,2.10
2006,06,16,15,20,4.80
2006,06,16,15,21,7.00
2006,06,16,15,22,8.20
2006,06,16,15,23,8.10
2006,06,16,15,24,6.60
2006,06,16,15,25,2.70
2006,06,16,15,26,9.40
2006,06,16,15,27,18.70
2006,06,16,15,28,17.20
2006,06,16,15,29,16.70
2006,06,16,15,30,5.00
2006,06,16,15,31,9.40
2006,06,16,15,32,8.70
2006,06,16,15,33,15.50
2006,06,16,15,34,11.50
2006,06,16,15,35,6.50
2006,06,16,15,36,7.80
2006,06,16,15,37,8.90
2006,06,16,15,38,4.70
2006,06,16,15,39,7.60
2006,06,16,15,40,17.10
2006,06,16,15,41,11.30
2006,06,16,15,42,13.70
2006,06,16,15,43,11.40
2006,06,16,15,44,2.90
2006,06,16,15,45,1.70
2006,06,16,15,46,2.50
2006,06,16,15,47,5.60
2006,06,16,15,48,6.00
2006,06,16,15,49,8.70
2006,06,16,15,50,2.60
2006,06,16,15,51,8.20
2006,06,16,15,52,13.60
2006,06,16,15,53,15.90
2006,06,16,15,54,11.70
2006,06,16,15,55,9.10
2006,06,16,15,56,7.00
2006,06,16,15,57,7.70
2006,06,16,15,58,17.80
2006,06,16,15,59,8.10
2006,06,16,16,00,6.00
2006,06,16,16,01,5.10
2006,06,16,16,02,6.30
2006,06,16,16,03,10.50
2006,06,16,16,04,7.20
2006,06,16,16,05,6.80
2006,06,16,16,06,6.00
2006,06,16,16,07,2.60
2006,06,16,16,08,3.80
2006,06,16,16,09,2.10
2006,06,16,16,10,2.00
2006,06,16,16,11,3.40
2006,06,16,16,12,3.50
2006,06,16,16,13,2.60
2006,06,16,16,14,1.90
2006,06,16,16,15,1.60
2006,06,16,16,16,1.90
2006,06,16,16,17,6.80
2006,06,16,16,18,8.20
2006,06,16,16,19,6.00
2006,06,16,16,20,5.60
2006,06,16,16,21,4.50
2006,06,16,16,22,4.40
2006,06,16,16,23,3.20
2006,06,16,16,24,8.30
2006,06,16,16,25,14.90
2006,06,16,16,26,8.60
2006,06,16,16,27,8.20
2006,06,16,16,28,11.50
2006,06,16,16,29,8.90
2006,06,16,16,30,7.20
2006,06,16,16,31,6.40
2006,06,16,16,32,8.10
2006,06,16,16,33,4.70
2006,06,16,16,34,6.10
2006,06,16,16,35,5.60
2006,06,16,16,36,3.70
2006,06,16,16,37,15.00
2006,06,16,16,38,9.00
2006,06,16,16,39,8.20
2006,06,16,16,40,9.40
2006,06,16,16,41,3.70
2006,06,16,16,42,9.10
2006,06,16,16,43,13.80
2006,06,16,16,44,9.10
2006,06,16,16,45,13.20
2006,06,16,16,46,8.30
2006,06,16,16,47,5.60
2006,06,16,16,48,12.00
2006,06,16,16,49,10.90
2006,06,16,16,50,7.30
2006,06,16,16,51,6.90
2006,06,16,16,52,11.20
2006,06,16,16,53,6.30
2006,06,16,16,54,4.60
2006,06,16,16,55,5.90
2006,06,16,16,56,6.20
2006,06,16,16,57,6.40
2006,06,16,16,58,6.40
2006,06,16,16,59,2.90
2006,06,16,17,00,2.90
2006,06,16,17,01,2.00
2006,06,16,17,02,6.40
2006,06,16,17,03,9.40
2006,06,16,17,04,6.30
2006,06,16,17,05,8.50
2006,06,16,17,06,4.50
2006,06,16,17,07,13.70
2006,06,16,17,08,10.10
2006,06,16,17,09,4.10
2006,06,16,17,10,8.80
2006,06,16,17,11,5.80
2006,06,16,17,12,2.70
2006,06,16,17,13,1.90
2006,06,16,17,14,5.00
2006,06,16,17,15,4.10
2006,06,16,17,16,7.00
2006,06,16,17,17,6.40
2006,06,16,17,18,7.20
2006,06,16,17,19,13.70
2006,06,16,17,20,4.60
2006,06,16,17,21,9.90
2006,06,16,17,22,5.80
2006,06,16,17,23,9.30
2006,06,16,17,24,3.30
2006,06,16,17,25,8.00
2006,06,16,17,26,6.40
2006,06,16,17,27,15.80
2006,06,16,17,28,6.30
2006,06,16,17,29,6.10
2006,06,16,17,30,6.40
2006,06,16,17,31,14.20
2006,06,16,17,32,6.50
2006,06,16,17,33,6.50
2006,06,16,17,34,6.10
2006,06,16,17,35,9.70
2006,06,16,17,36,12.20
2006,06,16,17,37,8.00
2006,06,16,17,38,6.00
2006,06,16,17,39,6.60
2006,06,16,17,40,11.40
2006,06,16,17,41,11.40
2006,06,16,17,42,11.30
2006,06,16,17,43,5.30
2006,06,16,17,44,2.60
2006,06,16,17,45,4.80
2006,06,16,17,46,3.30
2006,06,16,17,47,8.10
2006,06,16,17,48,5.60
2006,06,16,17,49,8.30
2006,06,16,17,50,9.60
2006,06,16,17,51,5.10
2006,06,16,17,52,3.30
2006,06,16,17,53,9.50
2006,06,16,17,54,8.50
2006,06,16,17,55,10.30
2006,06,16,17,56,9.00
2006,06,16,17,57,7.40
2006,06,16,17,58,7.00
2006,06,16,17,59,5.60
2006,06,16,18,00,1.80
2006,06,16,18,01,3.50
2006,06,16,18,02,5.50
2006,06,16,18,03,4.80